Montgomery, AL

2:39 PM CST on February 11, 2016 (GMT -0600)
Maxwell Air Force Base

Weather History for KMXF - November, 2013

Change the Weather History Date:

Wednesday, November 27, 2013

  Actual Average (KMGM) Record (KMGM)
Temperature  
Mean Temperature 36 °F 53 °F  
Max Temperature 44 °F 65 °F 84 °F (1990)
Min Temperature 28 °F 41 °F 23 °F (1903)
Degree Days  
Heating Degree Days 28 12  
Month to date heating degree days 241  
Since 1 July heating degree days 332  
Moisture  
Dew Point 30 °F    
Average Humidity 73    
Maximum Humidity 100    
Minimum Humidity 41    
Precipitation  
Precipitation 0.31 in 0.17 in 2.94 in (1988)
Month to date precipitation 4.08  
Year to date precipitation 47.68  
Snow  
Snow 0.00 in 0.00 in - ()
Month to date snowfall 0.0  
Since 1 July snowfall 0.0  
Since 1 September snowfall 0.0  
Snow Depth -    
Sea Level Pressure  
Sea Level Pressure 30.05 in    
Wind  
Wind Speed 13 mph (NW)    
Max Wind Speed 17 mph    
Max Gust Speed 26 mph    
Visibility 9 miles    
Events Rain    
T = Trace of Precipitation, MM = Missing Value Source: NWS Daily Summary

Daily Weather History Graph

Daily Weather History Graph

Search for Another Location

Airport or City:

Trip Planner

Search our weather history database for the weather conditions in past years. The results will help you decide how hot, cold, wet, or windy it might be!

Date:

Astronomy

Nov. 27, 2013 Rise Set
Actual Time 6:25 AM CST 4:40 PM CST
Civil Twilight 5:59 AM CST 5:07 PM CST
Nautical Twilight 5:28 AM CST 5:37 PM CST
Astronomical Twilight 4:59 AM CST 6:06 PM CST
Moon 12:45 AM CST (11/27) 1:00 PM CST (11/27)
Length of Visible Light 11h 07m
Length of Day
10h 14m
Waning Crescent, 31% of the Moon is Illuminated
Nov 27
Waning Crescent
Dec 2
New
Dec 9
First Quarter
Dec 17
Full
Dec 25
Last Quarter

Hourly Weather History & Observations

Time (CST) Temp. Windchill Dew Point Humidity Pressure Visibility Wind Dir Wind Speed Gust Speed Precip Events Conditions
12:03 AM 42.8 °F 35.8 °F 42.8 °F 100% 29.84 in 4.0 mi NW 13.8 mph - N/A Rain Light Rain
12:23 AM 42.8 °F 36.6 °F 41.0 °F 93% 29.84 in 5.0 mi NW 11.5 mph - N/A Rain Light Rain
12:38 AM 42.8 °F 36.6 °F 41.0 °F 93% 29.84 in 6.0 mi NW 11.5 mph - N/A Rain Light Rain
12:43 AM 42.8 °F 35.4 °F 41.0 °F 93% 29.84 in 9.0 mi NW 15.0 mph 20.7 mph N/A Rain Light Rain
12:58 AM 42.3 °F 35.1 °F 40.6 °F 94% 29.86 in 9.0 mi NNW 13.8 mph 19.6 mph 0.11 in Rain Light Rain
1:03 AM 42.8 °F 35.8 °F 41.0 °F 93% 29.85 in 10.0 mi NW 13.8 mph 19.6 mph N/A Rain Light Rain
1:08 AM 42.8 °F 37.0 °F 39.2 °F 87% 29.85 in 8.0 mi NW 10.4 mph - N/A Rain Light Rain
1:43 AM 41.0 °F 33.5 °F 39.2 °F 93% 29.85 in 7.0 mi NW 13.8 mph - N/A   Overcast
1:48 AM 41.0 °F 34.3 °F 39.2 °F 93% 29.85 in 7.0 mi NW 11.5 mph 20.7 mph N/A Rain Light Rain
1:58 AM 41.0 °F 34.3 °F 39.0 °F 93% 29.87 in 7.0 mi NW 11.5 mph - 0.11 in Rain Light Rain
2:58 AM 39.7 °F 31.9 °F 37.6 °F 92% 29.91 in 10.0 mi WNW 13.8 mph - 0.07 in Rain Light Rain
3:23 AM 39.2 °F 32.0 °F 35.6 °F 87% 29.92 in 10.0 mi NW 11.5 mph 24.2 mph N/A Rain Light Rain
3:51 AM 39.2 °F 32.0 °F 35.6 °F 87% 29.93 in 10.0 mi NW 11.5 mph - N/A   Overcast
3:58 AM 38.5 °F 30.7 °F 36.0 °F 91% 29.94 in 10.0 mi NNW 12.7 mph 20.7 mph 0.02 in   Overcast
4:08 AM 37.4 °F 28.2 °F 33.8 °F 87% 29.94 in 10.0 mi NW 16.1 mph 24.2 mph N/A   Mostly Cloudy
4:28 AM 37.4 °F 30.3 °F 33.8 °F 87% 29.95 in 10.0 mi NW 10.4 mph 23.0 mph N/A   Overcast
4:58 AM 36.9 °F 28.7 °F 34.0 °F 89% 29.98 in 10.0 mi NW 12.7 mph 16.1 mph N/A   Mostly Cloudy
5:08 AM 37.4 °F 30.3 °F 33.8 °F 87% 29.98 in 10.0 mi NW 10.4 mph - N/A   Mostly Cloudy
5:58 AM 37.9 °F 30.5 °F 31.8 °F 79% 30.01 in 10.0 mi NW 11.5 mph 25.3 mph N/A   Overcast
6:48 AM 37.4 °F 27.8 °F 30.2 °F 75% 30.03 in 10.0 mi NNW 17.3 mph 26.5 mph N/A   Overcast
6:58 AM 37.8 °F 29.8 °F 30.0 °F 74% 30.05 in 10.0 mi NNW 12.7 mph 23.0 mph N/A   Overcast
7:03 AM 37.4 °F 28.2 °F 30.2 °F 75% 30.04 in 10.0 mi NW 16.1 mph 25.3 mph N/A   Overcast
7:08 AM 37.4 °F 27.8 °F 30.2 °F 75% 30.04 in 10.0 mi NNW 17.3 mph 25.3 mph N/A   Overcast
7:58 AM 37.6 °F 29.1 °F 28.6 °F 70% 30.07 in 10.0 mi NW 13.8 mph 20.7 mph N/A   Overcast
8:23 AM 37.4 °F 29.3 °F 28.4 °F 70% 30.08 in 10.0 mi NW 12.7 mph - N/A   Overcast
8:58 AM 37.8 °F 29.4 °F 28.4 °F 69% 30.10 in 10.0 mi WNW 13.8 mph - N/A   Overcast
9:13 AM 37.4 °F 28.5 °F 28.4 °F 70% 30.09 in 10.0 mi NW 15.0 mph 23.0 mph N/A   Overcast
9:58 AM 39.0 °F 31.4 °F 28.0 °F 65% 30.12 in 10.0 mi NW 12.7 mph 21.9 mph N/A   Overcast
10:58 AM 42.3 °F 34.1 °F 27.1 °F 55% 30.13 in 10.0 mi NNW 17.3 mph 24.2 mph N/A   Scattered Clouds
11:30 AM 42.8 °F 35.4 °F 26.6 °F 53% 30.11 in 10.0 mi WNW 15.0 mph 21.9 mph N/A   Clear
11:34 AM 42.8 °F 35.4 °F 26.6 °F 53% 30.11 in 10.0 mi NNW 15.0 mph 21.9 mph N/A   Clear
11:58 AM 43.7 °F 37.3 °F 25.5 °F 49% 30.12 in 10.0 mi NW 12.7 mph 21.9 mph N/A   Clear
12:58 PM 43.9 °F 36.5 °F 25.3 °F 48% 30.13 in 10.0 mi NW 16.1 mph 20.7 mph N/A   Partly Cloudy
1:00 PM 44.6 °F 37.4 °F 24.8 °F 46% 30.12 in 10.0 mi NNW 16.1 mph - N/A   Partly Cloudy
1:58 PM 44.6 °F 38.4 °F 24.1 °F 44% 30.13 in 10.0 mi NW 12.7 mph 25.3 mph N/A   Clear
2:58 PM 44.6 °F 37.8 °F 22.5 °F 42% 30.16 in 10.0 mi NW 15.0 mph 20.7 mph N/A   Clear
3:58 PM 42.6 °F 36.3 °F 20.1 °F 41% 30.19 in 10.0 mi NNW 11.5 mph 23.0 mph N/A   Clear
4:58 PM 39.6 °F 34.0 °F 21.7 °F 49% 30.22 in 10.0 mi NW 8.1 mph - N/A   Clear
5:58 PM 37.4 °F 31.4 °F 21.4 °F 52% 30.25 in 10.0 mi NW 8.1 mph - N/A   Clear
6:58 PM 35.4 °F 29.7 °F 21.2 °F 56% 30.28 in 10.0 mi NW 6.9 mph - N/A   Clear
7:58 PM 32.9 °F 27.5 °F 21.6 °F 63% 30.30 in 10.0 mi NW 5.8 mph - N/A   Clear
8:58 PM 31.8 °F 26.2 °F 20.7 °F 63% 30.35 in 10.0 mi NW 5.8 mph - N/A   Clear
9:58 PM 30.6 °F 25.8 °F 20.1 °F 65% 30.37 in 10.0 mi NW 4.6 mph - N/A   Clear
10:58 PM 29.5 °F 23.4 °F 20.7 °F 70% 30.37 in 10.0 mi NW 5.8 mph - N/A   Clear
11:58 PM 28.9 °F 25.2 °F 21.6 °F 74% 30.38 in 10.0 mi WNW 3.5 mph - N/A   Clear